Location: Newark
(43.4100°N, 74.9600°W)
Time: 00:27:40
(UTC+00:00)

ISS - Pass Details

Date: 23 September 2019
Orbit: 411 x 421 km, 51.6° (Epoch: 15 October)

Event Time Altitude Azimuth Distance (km) Brightness Sun altitude
Rises 23:58:10 0° 242° (WSW) 2,334 0.9 -11.8°
Reaches altitude 10° 00:00:16 10° 244° (WSW) 1,475 -0.2 -12.1°
Maximum altitude 00:03:33 71° 328° (NNW) 437 -3.6 -12.7°
Enters shadow 00:06:21 14° 53° (NE) 1,269 -1.7 -13.2°
